DW0156 Weather Reports


time (UTC)temp
C
wind
direction
speed
KPH
gust
KPH
rain 1hr
cm
rain 24hr
cm
rain mn
cm
humidity
%
barometer
mb
20260903233221 17 263 4.8 14.5 0.00 0.00 0.00 66 1015.9
20260903232111 16 263 4.8 14.5 0.00 0.00 0.00 67 1016.2
20260903231609 16 263 4.8 14.5 0.00 0.00 0.00 68 1016.2
20260903231053 16 263 4.8 14.5 0.00 0.00 0.00 68 1016.2
20260903225913 15 263 3.2 12.9 0.00 0.00 0.00 69 1016.2
20260903225402 15 263 3.2 12.9 0.00 0.00 0.00 69 1016.4
20260903224909 15 263 3.2 9.7 0.00 0.00 0.00 69 1016.4
20260903224351 15 263 3.2 9.7 0.00 0.00 0.00 69 1015.9
20260903223858 15 263 3.2 14.5 0.00 0.00 0.00 70 1015.9
20260903223341 15 263 3.2 14.5 0.00 0.00 0.00 70 1015.9
20260903222834 15 263 4.8 14.5 0.00 0.00 0.00 70 1016.3
20260903222337 15 263 4.8 14.5 0.00 0.00 0.00 70 1016.3
20260903221150 15 263 3.2 14.5 0.00 0.00 0.00 70 1016.0
20260903220641 15 263 3.2 9.7 0.00 0.00 0.00 71 1016.0
20260903215521 15 263 3.2 9.7 0.00 0.00 0.00 72 1016.0
20260903215027 14 263 3.2 9.7 0.00 0.00 0.00 72 1016.0
20260903214529 14 263 3.2 8.0 0.00 0.00 0.00 72 1016.0
20260903214010 14 263 3.2 9.7 0.00 0.00 0.00 73 1015.6
20260903213455 14 263 3.2 9.7 0.00 0.00 0.00 73 1015.6
20260903212957 14 263 3.2 9.7 0.00 0.00 0.00 73 1015.6
20260903212455 14 263 3.2 9.7 0.00 0.00 0.00 74 1015.8
20260903211946 14 263 3.2 9.7 0.00 0.00 0.00 74 1015.8
20260903211443 13 263 3.2 9.7 0.00 0.00 0.00 75 1015.8
20260903210933 13 263 3.2 12.9 0.00 0.00 0.00 75 1015.7
20260903210439 13 263 3.2 12.9 0.00 0.00 0.00 75 1015.7
20260903205927 13 263 3.2 12.9 0.00 0.00 0.00 76 1015.7
20260903205413 13 263 3.2 12.9 0.00 0.00 0.00 76 1015.9
20260903204912 13 263 4.8 12.9 0.00 0.00 0.00 77 1015.9
20260903203726 13 263 4.8 16.1 0.00 0.00 0.00 78 1016.1
20260903203234 13 263 4.8 16.1 0.00 0.00 0.00 79 1016.1
20260903202103 13 263 4.8 16.1 0.00 0.00 0.00 80 1016.2
20260903200930 13 263 4.8 16.1 0.00 0.00 0.00 82 1016.5
20260903200411 13 263 4.8 16.1 0.00 0.00 0.00 82 1016.5
20260903195913 13 263 4.8 14.5 0.00 0.00 0.00 83 1016.5
20260903195410 12 263 4.8 14.5 0.00 0.00 0.00 84 1016.5
20260903194913 12 263 4.8 14.5 0.00 0.00 0.00 84 1016.5
20260903194423 12 263 4.8 14.5 0.00 0.00 0.00 84 1016.5
20260903193309 12 263 3.2 6.4 0.00 0.00 0.00 85 1017.0
20260903192804 12 263 3.2 6.4 0.00 0.00 0.00 85 1017.0
20260903192258 12 263 1.6 6.4 0.00 0.00 0.00 85 1017.0
20260903191807 12 263 1.6 6.4 0.00 0.00 0.00 85 1017.0
20260903191303 12 263 1.6 6.4 0.00 0.00 0.00 85 1016.8
20260903190749 12 263 1.6 6.4 0.00 0.00 0.00 85 1016.8
20260903190241 12 263 1.6 8.0 0.00 0.00 0.00 85 1016.8
20260903184500 11 263 1.6 6.4 0.00 0.00 0.00 85 1016.5
20260903183948 11 263 1.6 4.8 0.00 0.00 0.00 84 1016.8
20260903183428 11 263 1.6 6.4 0.00 0.00 0.00 84 1016.8
20260903182927 11 263 1.6 6.4 0.00 0.00 0.00 84 1016.8
20260903182414 11 263 1.6 6.4 0.00 0.00 0.00 84 1017.4
20260903181908 11 263 1.6 6.4 0.00 0.00 0.00 83 1017.4
20260903181402 11 263 0.0 3.2 0.00 0.00 0.00 83 1017.9
20260903180844 11 263 0.0 0.0 0.00 0.00 0.00 83 1017.9
20260903180348 11 263 0.0 0.0 0.00 0.00 0.00 82 1017.9
20260903175841 12 263 0.0 0.0 0.00 0.00 0.00 82 1017.9
20260903175335 12 263 0.0 6.4 0.00 0.00 0.00 82 1017.9
20260903174832 12 263 1.6 8.0 0.00 0.00 0.00 82 1017.9
20260903174329 12 263 1.6 8.0 0.00 0.00 0.00 82 1018.1
20260903173826 12 263 1.6 8.0 0.00 0.00 0.00 82 1018.1
20260903173334 12 263 1.6 8.0 0.00 0.00 0.00 82 1018.1
20260903172826 12 263 1.6 6.4 0.00 0.00 0.00 81 1018.6
20260903172309 12 263 3.2 6.4 0.00 0.00 0.00 81 1018.6
20260903171812 12 263 3.2 6.4 0.00 0.00 0.00 81 1018.6
20260903171304 12 263 1.6 6.4 0.00 0.00 0.00 80 1018.4
20260903170744 12 263 1.6 3.2 0.00 0.00 0.00 79 1018.4
20260903170227 12 263 0.0 3.2 0.00 0.00 0.00 79 1018.4
20260903165042 12 263 0.0 1.6 0.00 0.00 0.00 78 1018.5
20260903164533 12 263 0.0 0.0 0.00 0.00 0.00 78 1018.5
20260903164043 12 263 0.0 0.0 0.00 0.00 0.00 78 1019.0
20260903163542 12 263 0.0 0.0 0.00 0.00 0.00 78 1019.0
20260903163046 12 263 0.0 0.0 0.00 0.00 0.00 78 1019.0
20260903162531 12 263 0.0 0.0 0.00 0.00 0.00 78 1018.9
20260903162013 12 263 0.0 0.0 0.00 0.00 0.00 78 1018.9
20260903161500 12 263 0.0 0.0 0.00 0.00 0.00 78 1018.9
20260903160940 12 263 1.6 4.8 0.00 0.00 0.00 78 1018.8
20260903160433 12 263 1.6 4.8 0.00 0.00 0.00 78 1018.8
20260903155310 11 263 0.0 3.2 0.00 0.00 0.00 78 1019.1
20260903154138 11 263 0.0 0.0 0.00 0.00 0.00 78 1019.3
20260903153635 11 263 0.0 0.0 0.00 0.00 0.00 78 1019.3
20260903153119 11 263 0.0 0.0 0.00 0.00 0.00 78 1019.3
20260903152616 12 263 0.0 0.0 0.00 0.00 0.00 77 1019.5
20260903152117 12 263 0.0 0.0 0.00 0.00 0.00 77 1019.5
20260903151618 12 263 0.0 0.0 0.00 0.00 0.00 77 1019.5
20260903145810 12 263 0.0 0.0 0.00 0.00 0.00 77 1019.9
20260903145305 12 263 0.0 0.0 0.00 0.00 0.00 77 1019.9
20260903144745 12 263 0.0 0.0 0.00 0.00 0.00 77 1019.9
20260903143643 12 263 0.0 0.0 0.00 0.00 0.00 77 1020.1
20260903142505 12 263 0.0 0.0 0.00 0.00 0.00 77 1020.3
20260903142010 12 263 0.0 0.0 0.00 0.00 0.00 76 1020.3
20260903140231 12 263 0.0 0.0 0.00 0.00 0.00 75 1020.4
20260903135728 12 263 0.0 0.0 0.00 0.00 0.00 75 1020.6
20260903135224 12 263 0.0 0.0 0.00 0.00 0.00 75 1020.6
20260903134734 12 263 0.0 0.0 0.00 0.00 0.00 75 1020.6
20260903134243 12 263 0.0 0.0 0.00 0.00 0.00 75 1020.7
20260903133732 12 263 0.0 0.0 0.00 0.00 0.00 74 1020.7
20260903133239 12 263 0.0 0.0 0.00 0.00 0.00 74 1020.7
20260903132742 13 263 0.0 0.0 0.00 0.00 0.00 74 1020.7
20260903132238 13 263 0.0 0.0 0.00 0.00 0.00 74 1020.7
20260903131743 13 263 0.0 0.0 0.00 0.00 0.00 74 1020.7
20260903130630 13 263 0.0 0.0 0.00 0.00 0.00 74 1020.8
20260903125516 13 263 0.0 0.0 0.00 0.00 0.00 74 1020.9
20260903125019 13 263 0.0 1.6 0.00 0.00 0.00 74 1020.9
20260903124526 13 263 0.0 0.0 0.00 0.00 0.00 74 1020.9
20260903123406 13 263 1.6 6.4 0.00 0.00 0.00 74 1020.9
20260903122249 13 263 0.0 4.8 0.00 0.00 0.00 74 1021.2
20260903121749 13 263 0.0 0.0 0.00 0.00 0.00 74 1021.2
20260903121229 13 263 0.0 0.0 0.00 0.00 0.00 74 1021.2
20260903120737 13 263 0.0 0.0 0.00 0.00 0.00 74 1021.2
20260903120243 13 263 0.0 0.0 0.00 0.00 0.00 74 1021.2
20260903115727 13 263 0.0 1.6 0.00 0.00 0.00 73 1021.2
20260903115219 13 263 0.0 0.0 0.00 0.00 0.00 73 1021.2
20260903114722 13 263 0.0 0.0 0.00 0.00 0.00 73 1021.2
20260903112954 13 263 0.0 0.0 0.00 0.00 0.00 73 1021.2
20260903111851 13 263 0.0 0.0 0.00 0.00 0.00 72 1021.1
20260903111340 13 263 0.0 0.0 0.00 0.00 0.00 72 1021.0
20260903110849 13 263 0.0 0.0 0.00 0.00 0.00 72 1021.0
20260903110342 13 263 0.0 0.0 0.00 0.00 0.00 72 1021.0
20260903105845 13 263 0.0 0.0 0.00 0.00 0.00 72 1020.9
20260903104735 13 263 0.0 0.0 0.00 0.00 0.00 72 1020.9
20260903104244 13 263 0.0 3.2 0.00 0.00 0.00 71 1020.7
20260903103123 13 263 0.0 0.0 0.00 0.00 0.00 71 1020.7
20260903102610 13 263 0.0 0.0 0.00 0.00 0.00 71 1020.6
20260903102051 14 263 0.0 0.0 0.00 0.00 0.00 70 1020.6
20260903101557 14 263 0.0 0.0 0.00 0.00 0.00 70 1020.6
20260903101050 14 263 0.0 0.0 0.00 0.00 0.00 69 1020.4
20260903100540 14 263 0.0 0.0 0.00 0.00 0.00 69 1020.4
20260903100044 14 263 0.0 1.6 0.00 0.00 0.00 69 1020.4
20260903094914 14 263 0.0 6.4 0.00 0.00 0.00 68 1020.2
20260903094354 14 263 1.6 6.4 0.00 0.00 0.00 68 1020.3
20260903093838 14 263 1.6 8.0 0.00 0.00 0.00 68 1020.3
20260903093327 14 263 3.2 8.0 0.00 0.00 0.00 67 1020.3
20260903092822 14 263 3.2 9.7 0.00 0.00 0.00 67 1020.2
20260903092314 14 263 3.2 9.7 0.00 0.00 0.00 67 1020.2
20260903091202 14 263 3.2 9.7 0.00 0.00 0.00 66 1019.9
20260903090706 15 263 3.2 6.4 0.00 0.00 0.00 67 1019.9
20260903090147 15 263 1.6 6.4 0.00 0.00 0.00 67 1019.9
20260903085016 15 263 1.6 8.0 0.00 0.00 0.00 67 1020.0
20260903084500 15 263 3.2 8.0 0.00 0.00 0.00 67 1020.0
20260903083953 15 263 3.2 8.0 0.00 0.00 0.00 67 1019.7
20260903083451 15 263 1.6 8.0 0.00 0.00 0.00 66 1019.7
20260903082932 15 263 3.2 8.0 0.00 0.00 0.00 66 1019.7
20260903081808 15 263 3.2 8.0 0.00 0.00 0.00 65 1019.6
20260903081305 15 263 3.2 8.0 0.00 0.00 0.00 65 1019.5
20260903080753 15 263 3.2 8.0 0.00 0.00 0.00 65 1019.5
20260903080251 15 263 3.2 6.4 0.00 0.00 0.00 64 1019.5
20260903075756 15 263 3.2 8.0 0.00 0.00 0.00 64 1019.4
20260903075306 15 263 3.2 8.0 0.00 0.00 0.00 63 1019.4
20260903074803 15 263 4.8 14.5 0.00 0.00 0.00 63 1019.4
20260903074251 15 263 4.8 14.5 0.00 0.00 0.00 63 1019.2
20260903073754 15 263 4.8 14.5 0.00 0.00 0.00 62 1019.2
20260903073236 15 263 4.8 14.5 0.00 0.00 0.00 62 1019.2
20260903072726 15 263 3.2 9.7 0.00 0.00 0.00 62 1019.1
20260903071624 15 263 4.8 14.5 0.00 0.00 0.00 62 1019.1
20260903071116 15 263 4.8 14.5 0.00 0.00 0.00 62 1019.2
20260903070623 15 263 6.4 14.5 0.00 0.00 0.00 61 1019.2
20260903070113 15 263 6.4 19.3 0.00 0.00 0.00 61 1019.2
20260903065622 15 263 4.8 19.3 0.00 0.00 0.00 62 1019.1
20260903064521 15 263 8.0 19.3 0.00 0.00 0.00 62 1019.1
20260903063411 15 263 6.4 19.3 0.00 0.00 0.00 62 1019.1
20260903062226 16 263 6.4 19.3 0.00 0.00 0.00 63 1019.1
20260903061058 16 263 6.4 17.7 0.00 0.00 0.00 65 1019.1
20260903060601 16 263 6.4 17.7 0.00 0.00 0.00 64 1019.1
20260903060056 16 263 4.8 11.3 0.00 0.00 0.00 64 1019.1
20260903055554 16 263 4.8 11.3 0.00 0.00 0.00 64 1019.1
20260903055100 16 263 4.8 16.1 0.00 0.00 0.00 64 1019.1
20260903054541 16 263 4.8 16.1 0.00 0.00 0.00 64 1019.1
20260903054030 16 263 4.8 16.1 0.00 0.00 0.00 64 1019.0
20260903053533 16 263 6.4 16.1 0.00 0.00 0.00 64 1019.0
20260903052403 16 263 6.4 16.1 0.00 0.00 0.00 68 1019.0
20260903051901 16 263 4.8 14.5 0.00 0.00 0.00 68 1019.0
20260903051350 16 263 4.8 17.7 0.00 0.00 0.00 69 1018.7
20260903050854 16 263 6.4 17.7 0.00 0.00 0.00 69 1018.7
20260903045712 16 263 6.4 20.9 0.00 0.00 0.00 69 1018.6
20260903045152 16 263 9.7 20.9 0.00 0.00 0.00 68 1018.6
20260903044657 16 263 8.0 19.3 0.00 0.00 0.00 67 1018.6
20260903044203 16 263 8.0 17.7 0.00 0.00 0.00 69 1018.5
20260903043709 16 263 8.0 17.7 0.00 0.00 0.00 68 1018.5
20260903043158 16 263 6.4 19.3 0.00 0.00 0.00 68 1018.5
20260903042041 16 263 8.0 19.3 0.00 0.00 0.00 71 1018.5
20260903041546 16 263 6.4 19.3 0.00 0.00 0.00 71 1018.5
20260903041034 16 263 6.4 14.5 0.00 0.00 0.00 73 1018.5
20260903040543 16 263 6.4 14.5 0.00 0.00 0.00 73 1018.5
20260903040036 16 263 6.4 16.1 0.00 0.00 0.00 74 1018.5
20260903035521 16 263 6.4 16.1 0.00 0.00 0.00 73 1018.5
20260903035008 16 263 8.0 19.3 0.00 0.00 0.00 73 1018.5
20260903034452 16 263 9.7 19.3 0.00 0.00 0.00 73 1018.5
20260903033948 16 263 9.7 20.9 0.00 0.00 0.00 72 1018.5
20260903033448 16 263 6.4 20.9 0.00 0.00 0.00 72 1018.5
20260903032944 16 263 8.0 20.9 0.00 0.00 0.00 72 1018.5
20260903032429 16 263 6.4 20.9 0.00 0.00 0.00 73 1018.5
20260903031912 16 263 4.8 14.5 0.00 0.00 0.00 73 1018.5
20260903025529 16 263 6.4 16.1 0.00 0.00 0.00 78 1018.5
20260903025036 16 263 4.8 14.5 0.00 0.00 0.00 78 1018.5
20260903023910 15 263 6.4 14.5 0.00 0.00 0.00 80 1018.6
20260903023349 15 263 6.4 14.5 0.00 0.00 0.00 81 1018.6
20260903022841 15 263 6.4 14.5 0.00 0.00 0.00 81 1018.6
20260903022351 15 263 6.4 14.5 0.00 0.00 0.00 81 1018.6
20260903021847 15 263 6.4 14.5 0.00 0.00 0.00 83 1018.6
20260903021354 15 263 6.4 14.5 0.00 0.00 0.00 83 1018.6
20260903020246 15 263 6.4 14.5 0.00 0.00 0.00 86 1018.6
20260903015727 15 263 4.8 14.5 0.00 0.00 0.00 87 1018.5
20260903014620 15 263 6.4 16.1 0.00 0.00 0.00 88 1018.5
20260903013449 14 263 6.4 19.3 0.00 0.00 0.00 89 1018.5
20260903012952 14 263 8.0 19.3 0.00 0.00 0.00 89 1018.5
20260903011829 14 263 8.0 19.3 0.00 0.00 0.00 88 1018.4
20260903011331 14 263 6.4 20.9 0.00 0.00 0.00 89 1018.4
20260903010827 14 263 9.7 20.9 0.00 0.00 0.00 88 1018.4
20260903010324 14 263 9.7 20.9 0.00 0.00 0.00 87 1018.4
20260903005811 14 263 9.7 20.9 0.00 0.00 0.00 87 1018.2
20260903004638 15 263 9.7 24.1 0.00 0.00 0.00 85 1018.2
20260903004145 15 263 9.7 24.1 0.00 0.00 0.00 84 1018.1
20260903003643 15 263 9.7 24.1 0.00 0.00 0.00 84 1018.1
20260903003132 15 263 9.7 22.5 0.00 0.00 0.00 84 1018.1
20260903002003 15 263 8.0 22.5 0.00 0.00 0.00 84 1018.1
20260903001441 15 263 8.0 22.5 0.00 0.00 0.00 84 1018.1
20260903000947 15 263 8.0 20.9 0.00 0.00 0.00 85 1018.0
20260903000436 15 263 8.0 17.7 0.00 0.00 0.00 85 1018.0
20260902235940 15 263 8.0 27.4 0.00 0.00 0.00 85 1018.0
20260902235439 15 263 9.7 27.4 0.00 0.00 0.00 85 1018.0
20260902234932 14 263 9.7 27.4 0.00 0.00 0.00 85 1018.0
20260902233815 15 263 4.8 20.9 0.00 0.00 0.00 85 1017.9